Regional Weather Roundup
Issued by NWS Goodland, KS

Home | Current Version | Previous Version | Text Only | Print | Product List | Glossary On
Versions: 1 2 3 4 5 6 7 8 9 10 11 12 13 14 15 16 17 18 19 20 21 22 23 24 25 26 27 28 29 30 31 32 33 34 35 36 37 38 39 40 41 42 43 44 45 46 47 48 49 50
000
ASUS43 KGLD 070508
RWRGLD

GOODLAND FORECAST AREA HOURLY WEATHER ROUNDUP
NATIONAL WEATHER SERVICE GOODLAND KS
1000 PM MST FRI MAR 06 2015

...OFFICIAL OBSERVATIONS...

CITY           SKY/WX    TMP DP  RH WIND       PRES   REMARKS
GOODLAND KS    CLEAR     35  24  64 W10       30.27R
HILL CITY KS   CLEAR     37  18  46 W10       30.21S
IMPERIAL NEB     N/A     36  16  44 W10       30.24R
MCCOOK NEB     CLEAR     37  18  46 W9        30.21R
AKRON CO       CLEAR     36  19  50 W5        30.28R
BURLINGTON CO  CLEAR     32  23  69 W8        30.28R
LIMON CO       CLEAR     21  17  84 N3        30.31R
$$

...UNOFFICIAL OBSERVATIONS...

CITY           SKY/WX    TMP DP  RH WIND       PRES   REMARKS
LENORA KS        N/A     41  32  70 S12         N/A
$$


USA.gov is the U.S. government's official web portal to all federal, state and local government web resources and services.